Notices

What's New in latest Release from April 7th, 2021:

- Updated Glossary, including Speed of Maximum Gust, and Total Hourly Precipitation

- Updated national and regional climate services offices contacts and prices information

- Addition of station inventory lists for 1981-2010, 1971-2000, and 1961-1990 Normals.

If you haven't already, please take our survey and provide feedback about our website: https://eccc.sondage-survey.ca/f/LanguageSelection.aspx?s=442ca660-fcf1-47c0-95a9-59707d6fd709

Hourly Data Report for November 15, 2017

CARBERRY CS
MANITOBA

49°54'20.900" N
99°21'26.800" W
383.50 m
5010547
71170
WZE

Download Data

Hourly Data (November 2017)
Hourly Data Report for November 15, 2017
TIME
LST
Temp Definition
°C
Dew Point Definition
°C
Rel Hum Definition
%
Precip. Amount Definition
mm

Wind Dir Definition
10's deg

Wind Spd Definition
km/h
Visibility Definition
km
Stn Press Definition
kPa
Hmdx Definition


Wind Chill Definition


Weather Definition


00:00 -4.3 -5.7 90 0.0 36 21   96.78   -11 LegendNANA
01:00 -5.3 -8.0 81 0.0 33 26   96.91   -13 LegendNANA
02:00 -6.3 -10.5 72 0.0 33 23   96.99   -14 LegendNANA
03:00 -7.8 -11.5 75 0.0 32 22   97.08   -15 LegendNANA
04:00 -8.9 -12.2 76 0.0 30 23   97.20   -17 LegendNANA
05:00 -8.8 -12.2 76 0.0 32 23   97.28   -17 LegendNANA
06:00 -9.6 -13.2 75 0.0 30 21   97.38   -18 LegendNANA
07:00 -9.4 -12.0 81 0.0 32 18   97.47   -17 LegendNANA
08:00 -9.1 -11.8 81 0.0 34 24   97.58   -17 LegendNANA
09:00 -9.3 -11.4 85 0.0 35 21   97.68   -17 LegendNANA
10:00 -9.4 -11.7 83 0.0 34 24   97.70   -18 LegendNANA
11:00 -9.4 -11.9 82 0.0 33 26   97.76   -18 LegendNANA
12:00 -9.1 -11.8 81 0.0 34 23   97.80   -17 LegendNANA
13:00 -9.0 -11.6 81 0.0 35 22   97.83   -17 LegendNANA
14:00 -9.3 -11.7 82 0.0 36 23   97.82   -18 LegendNANA
15:00 -9.4 -11.4 86 0.0 36 18   97.85   -17 LegendNANA
16:00 -9.6 -11.1 88 0.0 36 15   97.91   -16 LegendNANA
17:00 -9.5 -11.1 88 0.0 34 13   97.96   -16 LegendNANA
18:00 -9.7 -11.4 88 0.0 36 13   97.94   -16 LegendNANA
19:00 -9.9 -11.6 87 0.0 3 16   97.91   -17 LegendNANA
20:00 -10.2 -11.8 88 0.0 4 16   97.91   -17 LegendNANA
21:00 -10.2 -11.7 89 0.0 2 10   97.88   -15 LegendNANA
22:00 -10.1 -11.7 88 0.0 5 9   97.90   -15 LegendNANA
23:00 -10.1 -11.4 90 0.0 5 13   97.82   -16 LegendNANA

Notes on Data Quality.

Legend

  • E = Estimated
  • M = Missing
  • NA = Not Available*
  • [empty] = Indicates an unobserved value
Date modified: